Total_Precipitation_Accumulation
1.81 1.71 1.63 1.58 1.49 1.66 1.98 2.17 2.09 2.08 2.03 1.92 1.72 1.56 1.43 1.37 1.34 1.45 1.57 1.77 1.77 1.74 1.85 1.98 1.87 1.70 1.60 1.44 1.24 1.09 1.01 0.96 0.89 0.71 0.61 0.52 0.44 0.43 0.45 0.51 0.50 0.45 0.44
2.21 2.29 2.18 2.00 1.71 1.68 1.78 2.10 2.21 2.35 2.24 2.11 1.57 1.49 1.49 1.51 1.55 1.54 1.60 2.09 2.14 1.77 1.67 1.77 1.91 1.92 1.81 1.69 1.51 1.27 1.15 1.06 0.91 0.71 0.62 0.55 0.46 0.41 0.46 0.54 0.55 0.45 0.34
2.36 2.36 2.15 1.83 1.62 1.70 1.79 1.74 1.79 2.09 1.88 1.74 1.54 1.64 1.68 1.59 1.55 1.54 1.58 1.90 1.98 1.68 1.45 1.42 1.60 1.76 1.89 2.01 1.94 1.78 1.53 1.28 1.06 0.84 0.69 0.55 0.47 0.40 0.40 0.50 0.57 0.49 0.36
2.04 2.06 1.72 1.35 1.42 1.63 1.71 1.68 1.64 1.73 1.71 1.74 1.72 1.68 1.65 1.55 1.33 1.26 1.18 1.20 1.33 1.16 1.24 1.41 1.40 1.40 1.66 2.02 2.24 2.40 2.12 1.63 1.27 1.00 0.81 0.64 0.51 0.40 0.35 0.40 0.48 0.45 0.36
1.51 1.60 1.32 1.19 1.31 1.44 1.48 1.45 1.60 1.69 1.57 1.63 1.64 1.53 1.26 1.14 1.01 0.89 0.86 0.81 0.87 0.92 0.93 1.11 1.19 1.25 1.58 2.06 2.46 2.79 2.75 2.28 1.79 1.44 1.16 0.88 0.72 0.51 0.40 0.35 0.37 0.39 0.34
1.21 1.37 1.26 1.14 1.25 1.33 1.30 1.44 1.56 1.63 1.41 1.38 1.31 1.07 0.89 0.67 0.63 0.58 0.51 0.57 0.61 0.62 0.70 0.86 1.12 1.01 1.39 1.79 2.20 2.62 2.97 2.79 2.19 1.80 1.64 1.40 1.15 0.83 0.54 0.38 0.33 0.33 0.29
1.12 1.28 1.17 1.07 1.06 1.08 1.04 1.18 1.31 1.31 1.08 1.28 1.43 0.97 0.67 0.52 0.45 0.36 0.35 0.40 0.43 0.50 0.67 0.89 1.09 1.10 1.24 1.38 1.59 1.96 2.56 2.83 2.53 2.10 1.89 1.68 1.53 1.18 0.77 0.54 0.39 0.29 0.25
0.95 1.02 1.00 0.88 0.85 0.88 0.85 0.93 1.06 1.06 0.94 1.20 1.35 1.22 0.87 0.66 0.52 0.37 0.37 0.38 0.42 0.54 0.62 0.73 1.01 1.16 1.20 1.58 1.39 1.40 1.86 2.36 2.58 2.42 2.20 1.82 1.57 1.31 0.99 0.79 0.59 0.41 0.30
0.68 0.66 0.66 0.69 0.73 0.73 0.74 0.81 0.96 1.08 0.95 0.97 1.19 1.33 1.06 0.76 0.67 0.51 0.50 0.54 0.59 0.68 0.75 0.88 1.01 1.12 1.21 1.49 1.54 1.48 1.48 1.65 2.18 2.66 2.66 2.16 1.60 1.29 1.19 1.15 1.03 0.75 0.56
0.49 0.47 0.49 0.58 0.65 0.69 0.74 0.68 0.72 0.89 0.94 0.86 0.95 1.06 1.08 1.09 1.03 0.76 0.57 0.54 0.61 0.65 0.68 0.73 0.83 0.99 1.07 1.30 1.62 1.59 1.44 1.33 1.52 2.16 2.60 2.55 2.05 1.46 1.20 1.27 1.56 1.42 1.02
0.47 0.43 0.42 0.44 0.53 0.60 0.66 0.68 0.69 0.75 0.81 0.80 0.81 0.86 0.93 1.04 1.03 0.95 0.71 0.55 0.55 0.54 0.61 0.68 0.77 0.83 0.91 1.16 1.55 1.54 1.53 1.34 1.27 1.46 1.85 2.10 2.05 1.75 1.50 1.54 2.03 2.36 2.09
0.44 0.43 0.42 0.44 0.45 0.46 0.49 0.56 0.62 0.67 0.72 0.75 0.74 0.81 0.89 0.88 0.88 0.99 0.87 0.71 0.65 0.59 0.67 0.75 0.86 0.95 0.96 1.05 1.03 1.11 1.12 1.15 1.13 1.08 1.15 1.33 1.57 1.71 1.74 1.94 2.37 2.81 2.97
0.35 0.39 0.40 0.46 0.51 0.51 0.51 0.52 0.58 0.64 0.71 0.76 0.75 0.78 0.86 0.90 0.91 0.99 0.96 0.80 0.74 0.77 0.88 0.90 0.89 0.97 0.93 1.09 1.03 0.87 0.73 0.75 0.75 0.74 0.75 0.85 1.04 1.27 1.43 1.56 1.87 2.26 2.59
0.32 0.38 0.43 0.46 0.49 0.54 0.56 0.63 0.66 0.71 0.76 0.79 0.77 0.88 0.93 0.89 0.98 1.04 1.10 1.12 1.01 0.99 1.12 1.01 0.83 0.82 0.85 0.88 0.84 0.76 0.76 0.61 0.51 0.47 0.48 0.54 0.62 0.74 0.88 1.03 1.21 1.41 1.63
0.27 0.29 0.35 0.46 0.47 0.50 0.57 0.66 0.71 0.75 0.81 0.86 0.89 0.99 1.05 1.03 1.03 1.03 1.16 1.26 1.30 1.25 1.28 1.17 0.99 0.88 0.80 0.73 0.72 0.71 0.76 0.72 0.52 0.38 0.35 0.36 0.44 0.51 0.56 0.59 0.69 0.81 0.93
0.24 0.26 0.29 0.35 0.39 0.42 0.51 0.64 0.71 0.79 0.91 0.98 0.98 1.00 1.08 1.12 1.16 1.16 1.17 1.25 1.38 1.46 1.40 1.13 1.05 0.97 0.84 0.65 0.62 0.59 0.61 0.66 0.51 0.36 0.29 0.28 0.30 0.35 0.41 0.46 0.51 0.55 0.62
0.24 0.22 0.22 0.23 0.24 0.28 0.36 0.53 0.72 0.84 0.95 1.00 1.02 1.06 1.10 1.18 1.20 1.12 1.17 1.23 1.33 1.46 1.33 1.07 1.11 1.23 1.09 0.84 0.66 0.59 0.52 0.52 0.50 0.43 0.29 0.25 0.25 0.26 0.31 0.35 0.37 0.42 0.47
0.25 0.22 0.20 0.19 0.17 0.19 0.29 0.45 0.62 0.77 0.92 1.03 1.06 1.08 0.98 0.99 1.09 1.14 1.17 1.21 1.24 1.37 1.31 1.20 1.16 1.26 1.24 1.07 0.88 0.68 0.51 0.43 0.44 0.48 0.36 0.27 0.24 0.25 0.28 0.30 0.29 0.31 0.35
0.34 0.30 0.27 0.25 0.29 0.34 0.41 0.49 0.56 0.68 0.83 0.92 0.95 0.93 0.90 0.93 0.94 1.04 1.10 1.12 1.13 1.14 1.20 1.22 1.21 1.33 1.34 1.19 0.97 0.76 0.58 0.53 0.48 0.45 0.39 0.35 0.31 0.30 0.32 0.29 0.26 0.28 0.32
0.34 0.33 0.32 0.35 0.41 0.47 0.49 0.49 0.52 0.60 0.66 0.71 0.76 0.74 0.72 0.78 0.84 0.90 0.93 0.95 1.00 1.05 1.11 1.13 1.20 1.33 1.36 1.35 1.14 0.89 0.69 0.57 0.53 0.46 0.43 0.47 0.48 0.45 0.41 0.36 0.29 0.27 0.30
0.30 0.36 0.40 0.42 0.45 0.48 0.45 0.50 0.54 0.49 0.55 0.53 0.50 0.53 0.55 0.59 0.65 0.74 0.75 0.79 0.88 0.94 0.99 1.09 1.17 1.32 1.35 1.40 1.24 1.01 0.85 0.72 0.61 0.56 0.54 0.52 0.52 0.46 0.41 0.40 0.36 0.29 0.25
0.36 0.41 0.44 0.46 0.47 0.41 0.40 0.39 0.40 0.38 0.40 0.44 0.44 0.42 0.40 0.45 0.49 0.55 0.59 0.65 0.74 0.83 0.92 1.02 1.12 1.24 1.33 1.32 1.27 1.17 1.04 0.86 0.67 0.64 0.75 0.74 0.61 0.57 0.68 0.63 0.48 0.30 0.23
0.48 0.50 0.52 0.54 0.56 0.58 0.43 0.34 0.29 0.31 0.35 0.40 0.45 0.47 0.35 0.28 0.37 0.46 0.54 0.54 0.57 0.64 0.77 0.91 1.00 1.12 1.29 1.36 1.39 1.29 1.21 1.07 0.83 0.66 0.64 0.58 0.56 0.60 0.84 0.96 0.69 0.39 0.29
0.71 0.74 0.74 0.72 0.72 0.67 0.52 0.37 0.29 0.27 0.32 0.37 0.42 0.46 0.44 0.39 0.39 0.45 0.55 0.57 0.55 0.52 0.58 0.68 0.78 0.98 1.31 1.54 1.56 1.52 1.48 1.38 1.15 0.87 0.75 0.64 0.56 0.56 0.55 0.61 0.65 0.46 0.34
1.00 1.04 1.06 1.01 0.95 0.88 0.70 0.47 0.38 0.36 0.42 0.45 0.48 0.49 0.49 0.45 0.38 0.34 0.44 0.52 0.55 0.55 0.52 0.61 0.70 0.86 1.09 1.42 1.60 1.63 1.65 1.47 1.24 0.95 0.76 0.69 0.56 0.55 0.52 0.46 0.52 0.58 0.47
1.18 1.15 1.06 0.98 0.93 0.93 0.81 0.56 0.49 0.50 0.58 0.61 0.68 0.66 0.58 0.53 0.45 0.35 0.40 0.49 0.51 0.54 0.59 0.61 0.64 0.67 0.80 1.07 1.33 1.36 1.37 1.41 1.19 0.98 0.72 0.65 0.58 0.53 0.50 0.44 0.41 0.45 0.50